Terminal Aerodrome Forecast
Issued by NWS Upton, NY

Home | Current Version | Previous Version | Text Only | Print | Product List | Glossary On
Versions: 1 2 3 4 5 6 7 8 9 10 11 12 13 14 15 16 17 18 19 20 21 22 23 24 25 26 27 28 29 30 31
000
FTUS41 KOKX 011100
TAFJFK
TAF
KJFK 011136Z 0112/0218 20007KT P6SM BKN150
     FM011500 17010KT P6SM FEW060 BKN250
     FM011900 18013KT P6SM SCT060 BKN150
     FM020200 18008KT P6SM FEW060 BKN150
     FM020500 VRB05KT P6SM VCSH SCT050 BKN100
     FM020800 05007KT 6SM -SHRA BKN050
     FM021100 05010KT 5SM -SHRA BR BKN030=

USA.gov is the U.S. government's official web portal to all federal, state and local government web resources and services.